Voltar ao catálogo

STARLINK-37850

AtivoComunicaçõesSSO
NORAD 69426·PAYLOAD·🇺🇸 United States

Lançado Jun 7, 2026 de Vandenberg Space Force Base

Loading…

Próximas Passagens (próximas 24 horas)

TLE

AtualizadoSource: CelesTrak SupGP

Época: Sep 14, 2026, 23:06 UTC

1 69426C 26126G   26257.96298611  .00087931  00000+0  27305-2 0  2571
2 69426  97.2848 119.2632 0001771  97.3156 309.7912 15.33383557    13

Acompanhe STARLINK-37850 em tempo real com AllMySat

Download on the App Store